Location: Conflandey
(47.7287°N, 6.0456°E)
Time: 03:52:20
(UTC+00:00)

Cosmos 2278 Rocket - Pass Details

Date: 24 October 2021
Orbit: 841 x 845 km, 71.0° (Epoch: 28 November)

Event Time Altitude Azimuth Distance (km) Brightness Sun altitude
Rises 19:28:23 0° 334° (NNW) 3,416 5.9 -30.3°
Reaches altitude 10° 19:30:54 10° 339° (NNW) 2,477 5.0 -30.7°
Enters shadow 19:34:17 35° 357° (N) 1,342 3.3 -31.2°
